OBJECT R, 43891

Orbit data source: Space-Track

You're viewing an Uncataloged Satellite

Recently launched and/or uncataloged satellites may have evolving metadata. Metadata may include but not limited to: Owner, Maufacturer, Bus, Motor, and Mission.

OBJECT R, 43891 is a satellite in SSO that was launched on Thu, 27 Dec 2018 UTC via a SOYUZ-2-1A launch vehicle from the Vostochny Cosmodrome (VOSTO). Unknown objects in Earth's orbit typically refer to objects detected orbiting the Earth but have not yet been identified or cataloged. These objects could be anything from previously untracked satellites, spent rocket stages, debris from satellite collisions, or even natural meteoroids temporarily captured by Earth's gravity.

Loading next visibility...
Identifier
43891, 2018-111R
Orbit
SSO
Country
Flag of TBDTBD
Related business
None
Manufacturer
Unknown
Mission
Non-operational Civil Technology
Bus & Motor
Unknown
Mass
Unknown
Launch date (UTC)
2018-12-27 (7 years ago)
Launch vehicle
SOYUZ-2-1A
Launch site
Vostochny Cosmodrome (VOSTO)
Object type
Unknown
Shape & HBR
Box, 0.1 m
Radar Cross Section
0.080 m², Medium (>0.1 m² and < 1m²)

Expand to show TLE details & history
Last TLE update: 7 hours ago

TLE from 7 hours ago
0 OBJECT R
1 43891U 18111R   26171.32711921  .00002448  00000-0  68199-4 0  9995
2 43891  97.0080   6.8828 0017608 257.0836 102.8443 15.37565890416918
Epoch: 2026-06-20T07:51Z
TLE epoch observation values (Epoch: 2026-06-20T07:51:03.099Z)
Latitude
-0.00006°
Longitude
-19.42344°
Altitude
459.13 km
Speed
7.636 km/s
True Right ascension
00h 27m 31s
True Declination
0° 00' 00"
Sunlit
Object was in daylight at epoch
Visualization orbit readout
Latitude
Unknown
Longitude
Unknown
Altitude
Unknown
Speed
Unknown
Apparent Right ascension
Unknown
Apparent Declination
Unknown
Sunlit
N/A
Visualization observer readout
Local Sidereal Time
01:42:18
Azimuth
Unknown
Elevation
Unknown
Doppler factor
Unknown
Orbital elements
Apogee altitude
462.259 km
Perigee altitude
438.212 km
Semi-major axis
6,828.372 km
Eccentricity
0.00176
Inclination
97.008°
RAAN
6.8828°
Arg. of periapsis
257.0836°
True anomaly
103.04093°
Mean anomaly
102.8443°
Eccentric anomaly
102.94262°
Mean motion
3.84651 °/min
Orbital period
93.59 mins
BSTAR
0.000068199
Loading maneuver chart data...
Computing Atmospheric mass density...
Loading historical data...
Loading historical data...
Loading historical data...
Loading historical data...
Loading historical data...
Loading historical data...
Loading historical data...

Documentation

Showing up to 5 results
|